Regional Weather Roundup
Issued by NWS Kansas City/Pleasant Hill, MO

Home | Current Version | Previous Version | Text Only | Print | Product List | Glossary On
Versions: 1 2 3 4 5 6 7 8 9 10 11 12 13 14 15 16 17 18 19 20 21 22 23 24 25 26 27 28 29 30 31 32 33 34 35 36 37 38 39 40 41 42 43 44 45 46 47 48 49 50
000
ASUS43 KEAX 271510
RWREAX

WEATHER ROUNDUP FOR EASTERN KANSAS AND NORTHWEST MISSOURI
NATIONAL WEATHER SERVICE KANSAS CITY/PLEASANT HILL MO
1000 AM CDT FRI MAR 27 2015

KSZ040-057-103>105-MOZ028-029-037-043-271600-
...KANSAS CITY METROPOLITAN AREA...

CITY           SKY/WX    TMP DP  RH WIND       PRES   REMARKS
K.C. INTL      PTSUNNY   34  24  67 N10       30.27R WCI  26
K.C. DOWNTOWN  PTSUNNY   35  22  58 N12       30.28R WCI  27
LEES SUMMIT    MOSUNNY   34  23  64 N14       30.26R WCI  25
OLATHE - IXD   MOSUNNY   35  28  75 NW13      30.27R WCI  26
OLATHE - OJC   PTSUNNY   36  23  59 N15       30.25R WCI  27
LAWRENCE       PTSUNNY   36  29  75 N13       30.29R WCI  27

$$

MOZ001>008-011>017-020>025-030>033-038>040-044>046-053-054-271600-
...NORTHERN AND CENTRAL MISSOURI...

CITY           SKY/WX    TMP DP  RH WIND       PRES   REMARKS
ST. JOSEPH     MOSUNNY   33  22  63 N13       30.30R WCI  24
MOSBY          CLOUDY    34  23  64 N14       30.27S WCI  24
WARRENSBURG    MOSUNNY   34  25  69 N9        30.25S WCI  26
WHITEMAN AFB   MOSUNNY   35  24  64 N15       30.23R WCI  25
CLINTON        PTSUNNY   39  32  75 N15       30.24R WCI  31
SEDALIA        MOSUNNY   34  25  69 N14       30.23R WCI  25
WARSAW         NOT AVBL
MARSHALL       MOSUNNY   36  28  75 N12       30.25R WCI  27
CHILLICOTHE      N/A     35  21  56 N10G18    30.27R WCI  27
MOBERLY        PTSUNNY   34  19  55 N9        30.23R WCI  26
KIRKSVILLE     PTSUNNY   34  19  54 N13       30.23R WCI  25

$$

MOZ041-047>049-056>058-063>065-088>090-097-271600-
...EASTERN AND SOUTHERN MISSOURI...

CITY           SKY/WX    TMP DP  RH WIND       PRES   REMARKS
ST. LOUIS INTL PTSUNNY   37  25  61 N15       30.18R WCI  28
SPIRIT OF STL  PTSUNNY   37  23  56 N7        30.18R WCI  32
COLUMBIA       CLOUDY    35  26  69 N12       30.20S WCI  27
JEFFERSON CITY CLOUDY    36  23  59 N12       30.22R WCI  28
HANNIBAL       CLOUDY    36  21  55 N8        30.21R WCI  29
ROLLA          PTSUNNY   34  25  69 MISG      30.16R
OSAGE BEACH    CLOUDY    34  27  75 N7        30.20R WCI  28
SPRINGFIELD    LGT RAIN  36  32  85 N14       30.19R WCI  27
BRANSON        CLOUDY    39  36  87 N16G23    30.16R WCI  30
NEVADA         MOSUNNY   39  27  60 N14G22    30.26R WCI  31
JOPLIN         PTSUNNY   40  31  70 N12       30.23R WCI  33
WEST PLAINS    CLOUDY    37  32  82 MISG      30.14R

$$

IAZ060-094-KSZ022-034>040-054-083-096-NEZ052-066-093-271600-
...KANSAS...SOUTHEAST NEBRASKA AND IOWA...

CITY           SKY/WX    TMP DP  RH WIND       PRES   REMARKS
TOPEKA         NOT AVBL
MANHATTAN      MOSUNNY   36  29  75 NE8       30.29F WCI  30
EMPORIA        PTSUNNY   38  28  67 N10       30.28R WCI  31
CHANUTE        PTSUNNY   41  31  67 N15       30.27R WCI  33
WICHITA        CLOUDY    38  28  67 NE17      30.27S WCI  28
OMAHA          PTSUNNY   28  20  71 N8        30.30F WCI  20
LINCOLN        SUNNY     31  22  69 VRB3      30.31F
FALLS CITY     SUNNY     31  21  66 N9        30.30R WCI  23
LAMONI         SUNNY     32  21  64 N12       30.25S WCI  23
DES MOINES     MOSUNNY   33  15  47 N9        30.27S WCI  25

$$




USA.gov is the U.S. government's official web portal to all federal, state and local government web resources and services.